Weather History for Oxford, CT

Change the Weather History Date:

Friday, November 4, 2011

  Actual Average Record
Temperature  
Mean Temperature 40 °F -  
Max Temperature 46 °F 50 °F 66 °F (2005)
Min Temperature 33 °F 34 °F 23 °F (1998)
Degree Days  
Heating Degree Days 24    
Moisture  
Dew Point 32 °F    
Average Humidity 69    
Maximum Humidity 93    
Minimum Humidity 34    
Precipitation  
Precipitation 0.00 in - - ()
Sea Level Pressure  
Sea Level Pressure 30.06 in    
Wind  
Wind Speed 7 mph (North)    
Max Wind Speed 23 mph    
Max Gust Speed 31 mph    
Visibility 10 miles    
Events      
Averages and records for this station are not official NWS values.
T = Trace of Precipitation, MM = Missing Value Source: NWS Daily Summary

Daily Weather History Graph

Daily Weather History Graph

Search for Another Location

Airport:

Trip Planner

Search our weather history database for the weather conditions in past years. The results will help you decide how hot, cold, wet, or windy it might be!

Date:

Astronomy

Nov. 04, 2011 Rise Set
Actual Time 7:27 AM EDT 5:44 PM EDT
Civil Twilight 6:58 AM EDT 6:13 PM EDT
Nautical Twilight 6:25 AM EDT 6:45 PM EDT
Astronomical Twilight 5:53 AM EDT 7:18 PM EDT
Moon 2:38 PM EDT (11/4) 1:32 AM EDT (11/4)
Length of Visible Light 11h 14m
Length of Day
10h 16m
Waxing Gibbous, 69% of the Moon is Illuminated
Nov 4
Waxing Gibbous
Nov 10
Full
Nov 18
Last Quarter
Nov 25
New
Dec 2
First Quarter

Hourly Weather History & Observations

Time (EDT) Temp. Windchill Dew Point Humidity Pressure Visibility Wind Dir Wind Speed Gust Speed Precip Events Conditions
12:15 AM 44.6 °F - 42.8 °F 93% 29.94 in 9.0 mi Calm Calm - N/A   Clear
1:55 AM 44.6 °F - 41.0 °F 87% 29.92 in 10.0 mi Calm Calm - N/A   Clear
2:15 AM 44.6 °F - 41.0 °F 87% 29.91 in 9.0 mi Calm Calm - N/A   Clear
2:35 AM 41.0 °F - 39.2 °F 93% 29.92 in 7.0 mi Calm Calm - N/A   Clear
2:55 AM 42.8 °F - 41.0 °F 93% 29.92 in 10.0 mi Calm Calm - N/A   Clear
3:15 AM 42.8 °F - 39.2 °F 87% 29.92 in 10.0 mi Calm Calm - N/A   Clear
3:35 AM 42.8 °F 40.1 °F 41.0 °F 93% 29.92 in 9.0 mi NNW 4.6 mph - N/A   Clear
4:15 AM 42.8 °F - 41.0 °F 93% 29.93 in 10.0 mi Calm Calm - N/A   Clear
4:35 AM 42.8 °F 38.6 °F 41.0 °F 93% 29.93 in 10.0 mi North 6.9 mph - N/A   Clear
4:55 AM 44.6 °F 40.2 °F 41.0 °F 87% 29.93 in 10.0 mi North 8.1 mph - N/A   Clear
5:15 AM 46.4 °F 41.9 °F 41.0 °F 81% 29.94 in 10.0 mi North 9.2 mph - N/A   Clear
5:35 AM 44.6 °F 38.8 °F 41.0 °F 87% 29.93 in 10.0 mi North 11.5 mph - N/A   Clear
5:55 AM 46.4 °F 40.1 °F 41.0 °F 81% 29.93 in 10.0 mi North 15.0 mph - N/A   Clear
6:45 AM 44.6 °F 38.1 °F 39.2 °F 81% 29.97 in 10.0 mi NNE 13.8 mph - N/A   Mostly Cloudy
7:45 AM 44.6 °F 37.8 °F 37.4 °F 76% 30.00 in 10.0 mi NNE 15.0 mph - N/A   Partly Cloudy
8:45 AM 42.8 °F 34.3 °F 33.8 °F 70% 30.03 in 10.0 mi NNE 19.6 mph 31.1 mph N/A   Clear
9:45 AM 42.8 °F 35.1 °F 33.8 °F 70% 30.03 in 10.0 mi North 16.1 mph 28.8 mph N/A   Clear
10:45 AM 42.8 °F 34.3 °F 33.8 °F 70% 30.04 in 10.0 mi NNE 19.6 mph 27.6 mph N/A   Partly Cloudy
11:45 AM 44.6 °F 37.2 °F 33.8 °F 66% 30.05 in 10.0 mi North 17.3 mph - N/A   Scattered Clouds
12:45 PM 46.4 °F 39.2 °F 28.4 °F 50% 30.04 in 10.0 mi NNE 18.4 mph 27.6 mph N/A   Scattered Clouds
1:45 PM 46.4 °F 38.3 °F 26.6 °F 46% 30.04 in 10.0 mi NNE 23.0 mph 29.9 mph N/A   Scattered Clouds
3:45 PM 46.4 °F 39.2 °F 23.0 °F 40% 30.06 in 10.0 mi North 18.4 mph 26.5 mph N/A   Scattered Clouds
4:45 PM 46.4 °F 41.1 °F 19.4 °F 34% 30.08 in 10.0 mi North 11.5 mph 23.0 mph N/A   Clear
5:45 PM 42.8 °F 34.8 °F 21.2 °F 42% 30.13 in 10.0 mi NNE 17.3 mph - N/A   Clear
6:50 PM 39.2 °F 32.0 °F 23.0 °F 52% 30.16 in 10.0 mi North 11.5 mph - N/A   Clear
7:50 PM 39.2 °F 34.2 °F 21.2 °F 49% 30.19 in 10.0 mi North 6.9 mph 19.6 mph N/A   Clear
9:15 PM 39.2 °F 32.0 °F 19.4 °F 45% 30.25 in 10.0 mi NNE 11.5 mph 21.9 mph N/A   Clear
9:36 PM 37.4 °F 29.3 °F 21.2 °F 52% 30.25 in 10.0 mi NNE 12.7 mph 17.3 mph N/A   Clear
10:15 PM 35.6 °F 28.0 °F 21.2 °F 56% 30.26 in 10.0 mi North 10.4 mph - N/A   Clear
10:35 PM 35.6 °F 26.6 °F 21.2 °F 56% 30.26 in 10.0 mi North 13.8 mph 17.3 mph N/A   Clear
10:55 PM 35.6 °F 29.2 °F 21.2 °F 56% 30.27 in 10.0 mi North 8.1 mph - N/A   Clear
11:15 PM 35.6 °F 28.6 °F 21.2 °F 56% 30.27 in 10.0 mi NNE 9.2 mph - N/A   Clear
11:35 PM 35.6 °F 27.5 °F 21.2 °F 56% 30.27 in 10.0 mi North 11.5 mph - N/A   Clear
11:55 PM 33.8 °F 27.7 °F 21.2 °F 60% 30.28 in 10.0 mi North 6.9 mph - N/A   Clear